Regional Weather Roundup
Issued by NWS

Home | Current Version | Previous Version | Text Only | Print | Product List | Glossary Off
Versions: 1 2 3 4 5 6 7 8 9 10 11 12 13 14 15 16 17 18 19 20 21 22 23 24 25 26 27 28 29 30 31 32 33 34 35 36 37 38 39 40 41 42 43 44 45 46 47 48 49 50

000
ASUS45 KABQ 260010
RWRNM
WEATHER ROUNDUP FOR NEW MEXICO
NATIONAL WEATHER SERVICE ALBUQUERQUE NM
600 PM MDT SAT APR 25 2015

NOTE: "FAIR" MEANS FEW OR NO CLOUDS BELOW 12,000 FEET AGL WITH NO
       SIGNIFICANT WEATHER OR OBSTRUCTIONS TO VISION.

      THIS PRODUCT IS RELEASED AS TWO VERSIONS.  ONE VERSION NEAR
      THE TOP OF THE HOUR CONTAINING PRELIMINARY DATA FROM ALBUQUERQUE
      AND OTHER STATIONS.  A FINAL VERSION WITH ADDITIONAL DATA IS
      ISSUED ABOUT 10 MINUTES AFTER THE HOUR.

NMZ501-503-504-510>518-260100-
NORTHWEST PLATEAU/NORTHCENTRAL MOUNTAINS

CITY           SKY/WX    TMP DP  RH WIND       PRES   REMARKS
FARMINGTON     LGT RAIN  59  32  36 W5        29.75F
6HR MIN TEMP:  55; 6HR MAX TEMP:  64; 6HR PCP: TRACE;

LOS ALAMOS     PTSUNNY   57  27  31 CALM      29.86F
SANTA FE       PTSUNNY   63  25  23 W8        29.82F
6HR MIN TEMP:  56; 6HR MAX TEMP:  63;

TAOS           MOSUNNY   55  25  30 SW12G20   29.85F
ANGEL FIRE     MOCLDY    48  28  45 W15       29.89F

$$
NMZ402-403-502-505>509-260100-
WESTCENTRAL MOUNTAINS/SOUTHWEST MOUNTAINS

CITY           SKY/WX    TMP DP  RH WIND       PRES   REMARKS
GALLUP         PTSUNNY   58  28  32 W21G33    29.84R
6HR MIN TEMP:  53; 6HR MAX TEMP:  65; 6HR PCP: TRACE;

GRANTS         CLOUDY    63  22  20 W14G26    29.83S
SILVER CITY      N/A     68  21  17 SW22G31   29.88F

$$
NMZ407-409-411-412-260100-
SOUTHERN DESERTS

CITY           SKY/WX    TMP DP  RH WIND       PRES   REMARKS
LORDSBURG      FAIR      73  23  15 W18G31    29.81F
DEMING         MOSUNNY   74  20  13 W16G22    29.81F
6HR MIN TEMP:  69; 6HR MAX TEMP:  77;

LAS CRUCES     SUNNY     74  18  12 W22G31    29.83S
HOLLOMAN AFB   MOSUNNY   77  15   9 SW23G29   29.76F
ALAMOGORDO     MOSUNNY   75  16  10 SW15G26   29.79F
T OR C         MOSUNNY   73  22  14 W21G29    29.78S
6HR MIN TEMP:  65; 6HR MAX TEMP:  77;


$$
NMZ519>523-260100-
CENTRAL VALLEYS/CENTRAL HIGHLANDS

CITY           SKY/WX    TMP DP  RH WIND       PRES   REMARKS
ALBUQUERQUE    PTSUNNY   69  22  16 SW10      29.78F
6HR MIN TEMP:  57; 6HR MAX TEMP:  70;

DOUBLE EAGLE   PTSUNNY   66  25  20 W14       29.80F
MORIARTY ARPT  FAIR      64  19  18 W16       29.83S
6HR MIN TEMP:  59; 6HR MAX TEMP:  68;

CLINES CORNERS MOSUNNY   62  23  22 W17G31    29.83S
6HR MIN TEMP:  54; 6HR MAX TEMP:  63;

BELEN          FAIR      68  25  19 W8        29.77S
6HR MIN TEMP:  62; 6HR MAX TEMP:  73;

SOCORRO        FAIR      71  26  18 CALM      29.75F
6HR MIN TEMP:  64; 6HR MAX TEMP:  74;


$$
NMZ524>526-539-540-260100-
SOUTHCENTRAL MOUNTAINS

CITY           SKY/WX    TMP DP  RH WIND       PRES   REMARKS
RUIDOSO        MOSUNNY   61  19  20 SW16      29.90S

$$
NMZ527>531-260100-
NORTHEAST HIGHLANDS/NORTHEAST PLAINS

CITY           SKY/WX    TMP DP  RH WIND       PRES   REMARKS
LAS VEGAS      MOSUNNY   59  25  27 W18       29.83S
6HR MIN TEMP:  57; 6HR MAX TEMP:  64;

RATON          PTSUNNY   64  23  21 W18G24    29.72R
6HR MIN TEMP:  63; 6HR MAX TEMP:  70;

CLAYTON        PTSUNNY   71  24  17 S12       29.68S
6HR MIN TEMP:  70; 6HR MAX TEMP:  76;


$$
NMZ532>537-260100-
EASTCENTRAL PLAINS

CITY           SKY/WX    TMP DP  RH WIND       PRES   REMARKS
TUCUMCARI      MOSUNNY   75  26  16 W23G38    29.68S
6HR MIN TEMP:  73; 6HR MAX TEMP:  80;

CANNON AFB     SUNNY     74  27  17 W20       29.73F
6HR MIN TEMP:  71; 6HR MAX TEMP:  76;

CLOVIS AIRPORT SUNNY     73  27  17 W21G29    29.73S

$$
NMZ028-029-538-260100-
SOUTHEAST PLAINS

CITY           SKY/WX    TMP DP  RH WIND       PRES   REMARKS
ROSWELL        SUNNY     80  23  12 W22G30    29.71S
6HR MIN TEMP:  72; 6HR MAX TEMP:  81;

ARTESIA        SUNNY     79  21  11 SW28      29.74S
CARLSBAD       SUNNY     81  16   9 W21G31    29.73F
6HR MIN TEMP:  77; 6HR MAX TEMP:  83;

HOBBS          SUNNY     77  19  11 SW22G28   29.76F


$$


USA.gov is the U.S. government's official web portal to all federal, state and local government web resources and services.